Zurück zum Katalog

STARLINK-5409

AktivKommunikationVLEO
NORAD 54859·PAYLOAD·🇺🇸 United States

Gestartet Dec 28, 2022 von Cape Canaveral Space Force Station

Loading…

Nächste Überflüge (nächste 24 Stunden)

TLE

AktuellSource: CelesTrak SupGP

Epoche: Sep 14, 2026, 21:31 UTC

1 54859C 22177AR  26257.89701389 -.00017312  00000+0 -62717-3 0  2575
2 54859  42.9990 133.1473 0001217 244.7368 206.2667 15.27580262    11

Verfolge STARLINK-5409 in Echtzeit mit AllMySat

Download on the App Store